Change the Weather History Date:

Thursday, February 6, 2014

  Actual Average Record
Temperature  
Mean Temperature -11 °F 28 °F  
Max Temperature 0 °F 36 °F 58 °F (2015)
Min Temperature -23 °F 20 °F -23 °F (2014)
Degree Days  
Heating Degree Days 76 37  
Month to date heating degree days 345 222  
Since 1 July heating degree days 4604 4611  
Cooling Degree Days 0 0  
Month to date cooling degree days 0 0  
Year to date cooling degree days 0 0  
Moisture  
Dew Point -19 °F    
Average Humidity 62    
Maximum Humidity 77    
Minimum Humidity 47    
Precipitation  
Precipitation 0.00 in 0.03 in 0.49 in (1938)
Month to date precipitation 0.03 0.15  
Year to date precipitation 0.91 1.00  
Snow  
Snow 0.00 in - - ()
Month to date snowfall 0.5  
Year to date snowfall 7.0  
Since 1 July snowfall 20.9  
Snow Depth 4.00 in    
Sea Level Pressure  
Sea Level Pressure 30.47 in    
Wind  
Wind Speed 6 mph (West)    
Max Wind Speed 24 mph    
Max Gust Speed 30 mph    
Visibility 10 miles    
Events      
T = Trace of Precipitation, MM = Missing Value Source: NWS Daily Summary

Daily Weather History Graph

Daily Weather History Graph

Search for Another Location

Airport or City:

Trip Planner

Search our weather history database for the weather conditions in past years. The results will help you decide how hot, cold, wet, or windy it might be!

Date:

Astronomy

Feb. 06, 2014 Rise Set
Actual Time 7:54 AM MST 5:47 PM MST
Civil Twilight 7:22 AM MST 6:19 PM MST
Nautical Twilight 6:46 AM MST 6:55 PM MST
Astronomical Twilight 6:10 AM MST 7:30 PM MST
Moon 11:20 AM MST (2/6) 1:14 AM MST (2/6)
Length of Visible Light 10h 57m
Length of Day
9h 53m
Waxing Crescent, 50% of the Moon is Illuminated
Feb 6
Waxing Crescent
Feb 6
First Quarter
Feb 14
Full
Feb 22
Last Quarter
Mar 1
New

Hourly Weather History & Observations

Time (MST) Temp. Windchill Dew Point Humidity Pressure Visibility Wind Dir Wind Speed Gust Speed Precip Events Conditions
12:53 AM -7.1 °F -31.0 °F -20.0 °F 53% 30.66 in 10.0 mi ESE 19.6 mph - N/A   Clear
1:53 AM -8.0 °F -34.4 °F -20.0 °F 56% 30.65 in 10.0 mi ESE 24.2 mph - N/A   Clear
2:53 AM -9.0 °F -31.7 °F -20.9 °F 56% 30.63 in 10.0 mi East 16.1 mph - N/A   Clear
3:53 AM -9.0 °F -20.4 °F -22.0 °F 53% 30.63 in 10.0 mi Variable 4.6 mph - N/A   Clear
4:53 AM -11.9 °F -25.7 °F -22.0 °F 61% 30.63 in 10.0 mi East 5.8 mph - N/A   Clear
5:53 AM -11.9 °F -31.0 °F -23.1 °F 58% 30.62 in 10.0 mi ESE 10.4 mph - N/A   Clear
6:53 AM -14.1 °F -32.6 °F -22.0 °F 68% 30.61 in 10.0 mi ESE 9.2 mph - N/A   Clear
7:53 AM -16.1 °F - -23.1 °F 71% 30.62 in 10.0 mi Calm Calm - N/A   Clear
8:53 AM -22.0 °F -35.6 °F -27.0 °F 77% 30.63 in 10.0 mi West 4.6 mph - N/A   Clear
9:53 AM -17.0 °F - -23.1 °F 74% 30.61 in 10.0 mi Calm Calm - N/A   Clear
10:53 AM -13.0 °F -25.1 °F -20.9 °F 68% 30.59 in 10.0 mi West 4.6 mph - N/A   Clear
11:53 AM -9.0 °F -18.2 °F -18.9 °F 62% 30.55 in 10.0 mi West 3.5 mph - N/A   Clear
12:53 PM -6.0 °F -16.9 °F -18.0 °F 56% 30.50 in 10.0 mi West 4.6 mph - N/A   Clear
1:53 PM -4.0 °F -14.6 °F -17.0 °F 54% 30.45 in 10.0 mi West 4.6 mph - N/A   Clear
2:53 PM -2.9 °F -15.0 °F -16.1 °F 54% 30.41 in 10.0 mi West 5.8 mph - N/A   Clear
3:53 PM -0.9 °F -8.9 °F -16.1 °F 49% 30.36 in 10.0 mi WNW 3.5 mph - N/A   Clear
4:53 PM -0.9 °F -8.9 °F -16.1 °F 49% 30.34 in 10.0 mi NNW 3.5 mph - N/A   Clear
5:53 PM -5.1 °F -15.8 °F -16.1 °F 59% 30.32 in 10.0 mi NW 4.6 mph - N/A   Clear
6:53 PM -9.0 °F - -18.9 °F 62% 30.32 in 10.0 mi Calm Calm - N/A   Clear
7:53 PM -7.1 °F -18.1 °F -17.0 °F 62% 30.29 in 10.0 mi South 4.6 mph - N/A   Clear
8:53 PM -6.0 °F - -15.0 °F 65% 30.28 in 10.0 mi Calm Calm - N/A   Clear
9:53 PM -8.0 °F - -15.0 °F 71% 30.25 in 10.0 mi Calm Calm - N/A   Clear
10:53 PM -8.0 °F - -16.1 °F 68% 30.21 in 10.0 mi Calm Calm - N/A   Clear
11:53 PM -8.0 °F -16.9 °F -15.0 °F 71% 30.18 in 10.0 mi WNW 3.5 mph - N/A   Clear